Location: Betzi
(47.2343°N, 9.5260°E)
Time: 23:33:01
(UTC+00:00)

Cosmos 2297 - Pass Details

Date: 27 May 2022
Orbit: 834 x 859 km, 71.0° (Epoch: 26 June)

Event Time Altitude Azimuth Distance (km) Brightness Sun altitude
Rises 01:12:09 0° 332° (NNW) 3,446 7.4 -16.9°
Reaches altitude 10° 01:14:37 10° 332° (NNW) 2,506 6.6 -16.7°
Maximum altitude 01:20:23 83° 245° (WSW) 871 3.7 -16.2°
Drops below altitude 10° 01:26:07 10° 158° (SSE) 2,484 5.8 -15.8°
Enters shadow 01:26:47 - 158° (SSE) 2,739 6.0 -15.7°
